KD5NVR-1 Weather Reports


time (UTC)temp
F
wind
direction
speed
knots
gust
knots
rain 1hr
in
rain 24hr
in
rain mn
in
humidity
%
barometer
mb
20260906224518 97 126 1.7 3.5 0.00 0.00 0.00 40 1012.1
20260906223537 97 115 2.6 7.0 0.00 0.00 0.00 39 1012.2
20260906222518 98 137 2.6 5.2 0.00 0.00 0.00 39 1012.2
20260906221518 98 176 2.6 5.2 0.00 0.00 0.00 39 1012.2
20260906220517 98 201 1.7 6.1 0.00 0.00 0.00 39 1012.3
20260906215518 97 180 1.7 6.1 0.00 0.00 0.00 39 1012.3
20260906214519 96 90 3.5 7.8 0.00 0.00 0.00 40 1012.4
20260906213559 97 209 3.5 7.0 0.00 0.00 0.00 40 1012.5
20260906212518 97 169 2.6 9.6 0.00 0.00 0.00 40 1012.6
20260906211519 96 154 1.7 3.5 0.00 0.00 0.00 41 1012.7
20260906210516 95 117 2.6 6.1 0.00 0.00 0.00 43 1012.9
20260906205536 95 255 2.6 5.2 0.00 0.00 0.00 44 1013.1
20260906204517 95 106 2.6 5.2 0.00 0.00 0.00 43 1013.3
20260906203516 96 166 3.5 7.0 0.00 0.00 0.00 42 1013.3
20260906202516 96 46 2.6 6.1 0.00 0.00 0.00 43 1013.3
20260906201517 96 148 2.6 7.0 0.00 0.00 0.00 42 1013.4
20260906200516 96 133 2.6 6.1 0.00 0.00 0.00 43 1013.5
20260906195517 96 111 3.5 7.8 0.00 0.00 0.00 43 1013.5
20260906194517 96 139 3.5 7.8 0.00 0.00 0.00 43 1013.5
20260906193517 96 199 4.3 9.6 0.00 0.00 0.00 43 1013.5
20260906192517 96 146 2.6 9.6 0.00 0.00 0.00 43 1013.7
20260906191517 95 169 2.6 7.0 0.00 0.00 0.00 42 1013.8
20260906190518 94 116 3.5 6.1 0.00 0.00 0.00 44 1014.1
20260906185517 96 354 2.6 4.3 0.00 0.00 0.00 42 1014.1
20260906184518 97 135 2.6 7.0 0.00 0.00 0.00 41 1014.2
20260906183538 96 145 1.7 5.2 0.00 0.00 0.00 42 1014.2
20260906182518 96 162 2.6 7.0 0.00 0.00 0.00 42 1014.3
20260906181538 95 117 2.6 6.1 0.00 0.00 0.00 44 1014.5
20260906180518 93 152 2.6 7.0 0.00 0.00 0.00 45 1014.7
20260906175518 91 339 1.7 2.6 0.00 0.00 0.00 49 1014.9
20260906174518 90 5 2.6 6.1 0.00 0.00 0.00 54 1015.2
20260906173539 92 31 2.6 5.2 0.00 0.00 0.00 47 1015.2
20260906172516 90 55 1.7 3.5 0.00 0.00 0.00 48 1015.3
20260906042519 83 122 1.7 3.5 0.00 0.00 0.00 55 1014.5
20260906041516 82 122 1.7 2.6 0.00 0.00 0.00 55 1014.5
20260906040537 82 118 0.9 2.6 0.00 0.00 0.00 55 1014.4
20260906035516 82 130 0.0 0.9 0.00 0.00 0.00 55 1014.3
20260906034516 83 110 0.0 1.7 0.00 0.00 0.00 54 1014.2
20260906033517 83 118 0.9 1.7 0.00 0.00 0.00 53 1014.2
20260906032517 84 129 0.9 2.6 0.00 0.00 0.00 53 1014.0
20260906031517 84 122 0.9 2.6 0.00 0.00 0.00 52 1013.9
20260906030517 84 106 0.9 2.6 0.00 0.00 0.00 51 1013.9
20260906025517 85 95 1.7 3.5 0.00 0.00 0.00 51 1013.7
20260906024517 85 93 0.9 1.7 0.00 0.00 0.00 50 1013.5
20260906023518 86 91 0.9 1.7 0.00 0.00 0.00 49 1013.3
20260906022518 86 90 1.7 2.6 0.00 0.00 0.00 48 1013.3
20260906021518 87 80 0.9 1.7 0.00 0.00 0.00 47 1013.2
20260906020518 87 96 0.9 2.6 0.00 0.00 0.00 46 1013.0
20260906015518 88 100 0.9 1.7 0.00 0.00 0.00 46 1012.9
20260906014518 88 105 0.9 2.6 0.00 0.00 0.00 45 1012.8
20260906013539 89 102 0.0 1.7 0.00 0.00 0.00 45 1012.7
20260906012519 90 97 0.9 2.6 0.00 0.00 0.00 44 1012.6
20260906011518 90 106 0.9 2.6 0.00 0.00 0.00 43 1012.5
20260906010539 91 107 1.7 3.5 0.00 0.00 0.00 42 1012.4
20260906005516 92 120 1.7 3.5 0.00 0.00 0.00 41 1012.3
20260906004516 93 111 1.7 3.5 0.00 0.00 0.00 40 1012.3
20260906003516 94 112 1.7 3.5 0.00 0.00 0.00 39 1012.2
20260906002516 95 109 2.6 6.1 0.00 0.00 0.00 38 1012.2
20260906001517 96 105 2.6 6.1 0.00 0.00 0.00 38 1012.1
20260906000537 96 106 2.6 5.2 0.00 0.00 0.00 37 1012.1
20260905235517 97 135 2.6 5.2 0.00 0.00 0.00 36 1012.1
20260905234537 97 121 2.6 8.7 0.00 0.00 0.00 36 1012.0
20260905233517 98 144 2.6 7.8 0.00 0.00 0.00 35 1011.9
20260905232517 98 156 2.6 7.8 0.00 0.00 0.00 35 1011.8
20260905231517 97 116 1.7 6.1 0.00 0.00 0.00 35 1011.9
20260905230518 97 125 1.7 4.3 0.00 0.00 0.00 35 1011.9
20260905225517 97 157 2.6 7.8 0.00 0.00 0.00 35 1011.9